When you browse on this site, cookies collect data to enhance your experience and personalize the content and advertising you see.
Visit our Privacy Policy to learn more. By continuing to use the site, you agree to this use of cookies and data.
  • In Lithuania
  • List of Countries
  • For 7 days
  • Water Temperature
  • Satellite Maps
  • Weather Map
  • Weather Widgets
  • user-avatar
    Login

    Hourly Weather Kipungo

    Today, 19 May, Sunday

    Time Temperature Precipitation Wind Pressure Humidity
    00:00 +20°C° 0 mm 1 mps 654 mmHg 48%
    01:00 +19°C° 0 mm 1 mps 653 mmHg 52%
    02:00 +18°C° 0 mm 1 mps 653 mmHg 55%
    03:00 +16°C° 0 mm 1 mps 653 mmHg 58%
    04:00 +15°C° 0 mm 0 mps 653 mmHg 61%
    05:00 +15°C° 0 mm 0 mps 653 mmHg 61%
    06:00 +15°C° 0 mm 0 mps 653 mmHg 61%
    07:00 +17°C° 0 mm 0 mps 654 mmHg 52%
    08:00 +22°C° 0 mm 1 mps 655 mmHg 42%
    09:00 +25°C° 0 mm 2 mps 656 mmHg 33%
    10:00 +28°C° 0 mm 2 mps 656 mmHg 23%
    11:00 +30°C° 0 mm 2 mps 656 mmHg 20%
    12:00 +32°C° 0 mm 2 mps 656 mmHg 17%
    13:00 +34°C° 0 mm 2 mps 656 mmHg 15%
    14:00 +33°C° 0 mm 1 mps 655 mmHg 15%
    15:00 +33°C° 0 mm 1 mps 655 mmHg 15%
    16:00 +33°C° 0 mm 1 mps 655 mmHg 15%
    17:00 +29°C° 0 mm 1 mps 654 mmHg 19%
    18:00 +26°C° 0 mm 1 mps 654 mmHg 22%
    19:00 +23°C° 0 mm 1 mps 654 mmHg 26%
    20:00 +22°C° 0 mm 1 mps 654 mmHg 29%
    21:00 +20°C° 0 mm 2 mps 654 mmHg 31%
    22:00 +19°C° 0 mm 2 mps 654 mmHg 34%
    23:00 +19°C° 0 mm 1 mps 654 mmHg 39%

    Tomorrow, 20 May, Monday

    Time Temperature Precipitation Wind Pressure Humidity
    00:00 +18°C° 0 mm 1 mps 654 mmHg 45%
    01:00 +16°C° 0 mm 0 mps 654 mmHg 50%
    02:00 +16°C° 0 mm 1 mps 654 mmHg 52%
    03:00 +16°C° 0 mm 1 mps 654 mmHg 54%
    04:00 +15°C° 0 mm 1 mps 654 mmHg 56%
    05:00 +15°C° 0 mm 1 mps 654 mmHg 55%
    06:00 +15°C° 0 mm 1 mps 654 mmHg 54%
    07:00 +15°C° 0 mm 1 mps 654 mmHg 53%
    08:00 +20°C° 0 mm 1 mps 655 mmHg 43%
    09:00 +24°C° 0 mm 1 mps 656 mmHg 34%
    10:00 +28°C° 0 mm 2 mps 657 mmHg 24%
    11:00 +29°C° 0 mm 2 mps 657 mmHg 21%
    12:00 +31°C° 0 mm 2 mps 656 mmHg 18%
    13:00 +33°C° 0 mm 3 mps 656 mmHg 15%
    14:00 +32°C° 0 mm 2 mps 655 mmHg 15%
    15:00 +32°C° 0 mm 2 mps 655 mmHg 15%
    16:00 +32°C° 0 mm 1 mps 654 mmHg 15%
    17:00 +28°C° 0 mm 1 mps 654 mmHg 19%
    18:00 +25°C° 0 mm 1 mps 653 mmHg 24%
    19:00 +22°C° 0 mm 1 mps 653 mmHg 28%
    20:00 +21°C° 0 mm 1 mps 653 mmHg 29%
    21:00 +21°C° 0 mm 1 mps 653 mmHg 30%
    22:00 +20°C° 0 mm 1 mps 654 mmHg 31%
    23:00 +19°C° 0 mm 1 mps 653 mmHg 34%

    Day after tomorrow, 21 May, Tuesday

    Time Temperature Precipitation Wind Pressure Humidity
    00:00 +18°C° 0 mm 1 mps 653 mmHg 37%
    01:00 +16°C° 0 mm 1 mps 653 mmHg 40%
    02:00 +15°C° 0 mm 1 mps 652 mmHg 42%
    03:00 +14°C° 0 mm 0 mps 652 mmHg 43%
    04:00 +13°C° 0 mm 0 mps 652 mmHg 44%
    05:00 +14°C° 0 mm 0 mps 652 mmHg 44%
    06:00 +14°C° 0 mm 0 mps 653 mmHg 44%
    07:00 +15°C° 0 mm 0 mps 653 mmHg 44%
    08:00 +21°C° 0 mm 1 mps 654 mmHg 36%
    09:00 +24°C° 0 mm 2 mps 655 mmHg 29%
    10:00 +28°C° 0 mm 3 mps 656 mmHg 21%
    11:00 +30°C° 0 mm 3 mps 656 mmHg 19%
    12:00 +31°C° 0 mm 3 mps 656 mmHg 17%
    13:00 +34°C° 0 mm 3 mps 655 mmHg 15%
    14:00 +34°C° 0 mm 2 mps 655 mmHg 16%
    15:00 +32°C° 0 mm 2 mps 654 mmHg 16%
    16:00 +32°C° 0 mm 1 mps 653 mmHg 16%
    17:00 +29°C° 0 mm 1 mps 653 mmHg 21%
    18:00 +26°C° 0 mm 1 mps 653 mmHg 25%
    19:00 +23°C° 0 mm 1 mps 653 mmHg 30%
    20:00 +22°C° 0 mm 1 mps 653 mmHg 33%
    21:00 +20°C° 0 mm 1 mps 653 mmHg 35%
    22:00 +19°C° 0 mm 1 mps 654 mmHg 38%
    23:00 +19°C° 0 mm 1 mps 653 mmHg 39%

    22 May, Wednesday

    Time Temperature Precipitation Wind Pressure Humidity
    00:00 +18°C° 0 mm 1 mps 653 mmHg 41%
    01:00 +18°C° 0 mm 1 mps 653 mmHg 43%
    02:00 +16°C° 0 mm 1 mps 653 mmHg 44%
    03:00 +16°C° 0 mm 1 mps 653 mmHg 45%
    04:00 +16°C° 0 mm 1 mps 652 mmHg 46%
    05:00 +16°C° 0 mm 1 mps 653 mmHg 46%
    06:00 +15°C° 0 mm 0 mps 653 mmHg 47%
    07:00 +15°C° 0 mm 0 mps 654 mmHg 48%
    08:00 +20°C° 0 mm 0 mps 655 mmHg 40%
    09:00 +26°C° 0 mm 1 mps 656 mmHg 31%
    10:00 +31°C° 0 mm 1 mps 657 mmHg 23%
    11:00 +31°C° 0 mm 1 mps 657 mmHg 22%
    12:00 +32°C° 0 mm 2 mps 656 mmHg 20%
    13:00 +34°C° 0 mm 2 mps 656 mmHg 18%
    14:00 +34°C° 0 mm 2 mps 655 mmHg 18%
    15:00 +34°C° 0 mm 2 mps 655 mmHg 19%
    16:00 +32°C° 0 mm 2 mps 654 mmHg 19%
    17:00 +29°C° 0 mm 2 mps 654 mmHg 23%
    18:00 +26°C° 0 mm 2 mps 654 mmHg 27%
    19:00 +23°C° 0 mm 2 mps 654 mmHg 31%
    20:00 +21°C° 0 mm 2 mps 654 mmHg 33%
    21:00 +20°C° 0 mm 1 mps 654 mmHg 36%
    22:00 +19°C° 0 mm 1 mps 654 mmHg 38%
    23:00 +18°C° 0 mm 1 mps 654 mmHg 40%

    23 May, Thursday

    Time Temperature Precipitation Wind Pressure Humidity
    00:00 +18°C° 0 mm 1 mps 653 mmHg 42%
    01:00 +16°C° 0 mm 1 mps 653 mmHg 44%
    02:00 +16°C° 0 mm 1 mps 653 mmHg 46%
    03:00 +14°C° 0 mm 0 mps 652 mmHg 48%
    04:00 +14°C° 0 mm 0 mps 652 mmHg 49%
    05:00 +14°C° 0 mm 0 mps 653 mmHg 49%
    06:00 +14°C° 0 mm 0 mps 653 mmHg 48%
    07:00 +16°C° 0 mm 1 mps 654 mmHg 47%
    08:00 +21°C° 0 mm 1 mps 654 mmHg 40%
    09:00 +25°C° 0 mm 1 mps 655 mmHg 32%
    10:00 +28°C° 0 mm 1 mps 656 mmHg 24%
    11:00 +30°C° 0 mm 2 mps 656 mmHg 23%
    12:00 +31°C° 0 mm 2 mps 655 mmHg 21%
    13:00 +33°C° 0 mm 3 mps 654 mmHg 19%
    14:00 +32°C° 0 mm 2 mps 654 mmHg 19%
    15:00 +32°C° 0 mm 2 mps 654 mmHg 19%
    16:00 +32°C° 0 mm 2 mps 653 mmHg 19%
    17:00 +29°C° 0 mm 1 mps 653 mmHg 23%
    18:00 +27°C° 0 mm 1 mps 653 mmHg 27%
    19:00 +24°C° 0 mm 1 mps 653 mmHg 31%
    20:00 +24°C° 0 mm 1 mps 653 mmHg 32%
    21:00 +23°C° 0 mm 1 mps 654 mmHg 33%
    22:00 +22°C° 0 mm 1 mps 654 mmHg 33%
    23:00 +21°C° 0 mm 1 mps 654 mmHg 35%

    24 May, Friday

    Time Temperature Precipitation Wind Pressure Humidity
    00:00 +20°C° 0 mm 1 mps 653 mmHg 37%
    01:00 +18°C° 0 mm 1 mps 653 mmHg 39%
    02:00 +18°C° 0 mm 1 mps 653 mmHg 40%
    03:00 +16°C° 0 mm 1 mps 653 mmHg 42%
    04:00 +16°C° 0 mm 1 mps 652 mmHg 43%
    05:00 +15°C° 0 mm 0 mps 653 mmHg 42%
    06:00 +15°C° 0 mm 0 mps 653 mmHg 42%
    07:00 +16°C° 0 mm 0 mps 654 mmHg 42%
    08:00 +22°C° 0 mm 1 mps 655 mmHg 36%
    09:00 +25°C° 0 mm 1 mps 656 mmHg 29%
    10:00 +29°C° 0 mm 1 mps 657 mmHg 23%
    11:00 +30°C° 0 mm 2 mps 656 mmHg 22%
    12:00 +32°C° 0 mm 2 mps 656 mmHg 21%
    13:00 +34°C° 0 mm 3 mps 655 mmHg 20%
    14:00 +32°C° 0 mm 2 mps 655 mmHg 21%
    15:00 +32°C° 0 mm 1 mps 654 mmHg 22%
    16:00 +31°C° 0 mm 1 mps 654 mmHg 23%
    17:00 +29°C° 0 mm 1 mps 654 mmHg 27%
    18:00 +26°C° 0 mm 1 mps 654 mmHg 30%
    19:00 +24°C° 0 mm 1 mps 654 mmHg 34%
    20:00 +24°C° 0 mm 1 mps 654 mmHg 35%
    21:00 +23°C° 0 mm 1 mps 655 mmHg 36%
    22:00 +22°C° 0 mm 1 mps 655 mmHg 37%
    23:00 +22°C° 0 mm 1 mps 654 mmHg 38%
    Show more